Weather in Warwick

Australia     28°13′11″S   152°01′41″E
temp.,
°C
wind,
m/s
gust,
m/s
humid.,
%
clouds,
%
prec.,
mm/h
press.,
hPa
HPBL,
m
10 may, mon
mon1001:00+13sw11863 0.0 101811
04:00+12se00920 0.0 101710
07:00+12sse11885 0.0 101911
10:00+21nw23555 0.0 1018681
13:00+24wnw46415 0.0 10151927
16:00+22w35480 0.0 10141160
19:00+16ssw116915 0.1 101715
22:00+14sse127816 0.1 101812
11 may, tue
tue1101:00+15ese117391 0.0 101714
04:00+13ssw018379 0.1 101711
07:00+14sw018465 0.3 101810
10:00+16w2287100 3.0 1019166
13:00+21w24652 2.0 1016684
16:00+21nw146625 3.1 1015775
19:00+14s11965 2.3 101818
22:00+13se119696 5.1 101914
12 may, wed
wed1201:00+14se1193100 1.3 101717
04:00+14ese269793 6.4 1018197
07:00+14se2697100 2.0 1019178
10:00+19se347794 2.1 1019549
13:00+22ene126219 1.1 10161170
16:00+18se358690 5.4 1016264
19:00+15se51195100 3.4 1017468
22:00+15ese2598100 12.3 1018215
13 may, thu
thu1301:00+14e3598100 3.6 1016198
04:00+13sse11978 3.7 101517
07:00+13ssw11966 0.6 101519
10:00+18nw338268 1.1 1015667
13:00+18wnw457293 0.1 1012972
16:00+19wnw36620 0.1 10111258
19:00+13wsw27770 0.0 1014160
22:00+11sw22770 0.0 101526
14 may, fri
fri1401:00+9wsw25770 0.0 1015100
04:00+8w24780 0.0 101593
07:00+8nw01810 0.0 101733
10:00+17sw47450 0.0 1016887
13:00+20sw56390 0.0 10141210
16:00+17sw47500 0.0 1014777
19:00+11sw22730 0.0 101715
22:00+9ssw11820 0.0 101813